FW8756 Weather Reports


Display with metric or nautical units.
time (UTC)temp
F
wind
direction
speed
MPH
gust
MPH
rain 1hr
in
rain 24hr
in
rain mn
in
humidity
%
barometer
mb
20260904054143 80 133 0.0 0.0 0.00 0.00 0.00 91 1012.6
20260904053638 80 141 0.0 0.0 0.00 0.00 0.00 91 1012.2
20260904053132 79 150 0.0 0.0 0.00 0.00 0.00 91 1012.3
20260904052629 79 137 0.0 0.0 0.00 0.00 0.00 91 1012.1
20260904052125 79 135 0.0 0.0 0.00 0.00 0.00 91 1012.1
20260904051620 79 142 0.0 0.0 0.00 0.00 0.00 91 1011.8
20260904051115 79 151 0.0 0.0 0.00 0.00 0.00 91 1012.0
20260904050610 79 145 0.0 0.0 0.00 0.00 0.00 91 1012.0
20260904050107 79 141 0.0 0.0 0.00 0.00 0.00 91 1012.2
20260904045601 79 141 0.0 0.0 0.00 0.00 0.00 91 1012.0
20260904045056 79 140 0.0 0.0 0.00 0.00 0.00 91 1012.1
20260904044552 79 137 0.0 1.0 0.00 0.00 0.00 91 1012.0
20260904044048 80 138 0.0 0.0 0.00 0.00 0.00 91 1012.1
20260904043544 80 145 0.0 0.0 0.00 0.00 0.00 91 1012.0
20260904043040 80 148 0.0 0.0 0.00 0.00 0.00 91 1012.3
20260904042536 80 123 0.0 1.0 0.00 0.00 0.00 90 1012.3
20260904042031 80 149 0.0 0.0 0.00 0.00 0.00 90 1012.1
20260904041527 80 142 0.0 0.0 0.00 0.00 0.00 90 1012.1
20260904041023 80 160 0.0 0.0 0.00 0.00 0.00 90 1012.0
20260904040522 80 144 0.0 0.0 0.00 0.00 0.00 90 1012.0
20260904040020 80 145 0.0 0.0 0.00 0.00 0.00 90 1012.2
20260904035519 80 144 0.0 0.0 0.00 0.00 0.00 90 1012.2
20260904035019 80 153 0.0 0.0 0.00 0.00 0.00 90 1011.9
20260904034514 80 149 0.0 0.0 0.00 0.00 0.00 90 1011.9
20260904034009 80 159 0.0 0.0 0.00 0.00 0.00 90 1012.0
20260904033505 80 154 0.0 0.0 0.00 0.00 0.00 90 1012.0
20260904033002 80 154 1.0 1.0 0.00 0.00 0.00 90 1011.9
20260904032457 80 74 0.0 0.0 0.00 0.00 0.00 90 1012.0
20260904031956 80 78 0.0 0.0 0.00 0.00 0.00 90 1012.1
20260904031451 79 77 0.0 0.0 0.00 0.00 0.00 90 1012.0
20260904030947 79 81 0.0 0.0 0.00 0.00 0.00 90 1012.0
20260904030443 79 76 0.0 0.0 0.00 0.00 0.00 90 1011.9
20260904025937 79 83 0.0 1.0 0.00 0.00 0.00 90 1011.9
20260904025434 79 83 0.0 0.0 0.00 0.00 0.00 90 1012.0
20260904024933 79 77 0.0 0.0 0.00 0.00 0.00 90 1011.6
20260904024429 79 76 0.0 0.0 0.00 0.00 0.00 90 1011.8
20260904023925 79 74 0.0 0.0 0.00 0.00 0.00 89 1011.8
20260904023421 79 68 0.0 0.0 0.00 0.00 0.00 89 1011.7
20260904022920 79 73 0.0 0.0 0.00 0.00 0.00 89 1011.8
20260904022417 79 73 0.0 0.0 0.00 0.00 0.00 89 1011.7
20260904021913 79 74 0.0 0.0 0.00 0.00 0.00 89 1011.8
20260904021409 79 73 0.0 0.0 0.00 0.00 0.00 89 1011.4
20260904020903 79 73 0.0 0.0 0.00 0.00 0.00 89 1011.3
20260904020359 79 72 0.0 0.0 0.00 0.00 0.00 89 1011.3
20260904015857 79 73 0.0 0.0 0.00 0.00 0.00 89 1011.1
20260904015353 79 69 0.0 0.0 0.00 0.00 0.00 88 1011.2
20260904014851 79 69 0.0 0.0 0.00 0.00 0.00 88 1011.2
20260904014346 79 72 0.0 0.0 0.00 0.00 0.00 88 1011.0
20260904013842 79 69 0.0 0.0 0.00 0.00 0.00 88 1011.3
20260904013338 79 69 0.0 0.0 0.00 0.00 0.00 88 1011.0
20260904012834 79 73 0.0 0.0 0.00 0.00 0.00 88 1011.1
20260904012329 79 70 0.0 0.0 0.00 0.00 0.00 88 1010.8
20260904011828 79 68 0.0 0.0 0.00 0.00 0.00 87 1010.8
20260904011323 80 69 0.0 0.0 0.00 0.00 0.00 87 1010.9
20260904010817 80 71 0.0 0.0 0.00 0.00 0.00 87 1010.8
20260904010315 80 68 0.0 0.0 0.00 0.00 0.00 87 1010.9
20260904005809 80 72 1.0 1.0 0.00 0.00 0.00 86 1011.0
20260904005306 80 71 0.0 1.0 0.00 0.00 0.00 86 1010.9
20260904004759 80 97 0.0 0.0 0.00 0.00 0.00 86 1010.7
20260904004256 80 159 0.0 0.0 0.00 0.00 0.00 86 1011.1
20260904003750 80 159 0.0 1.0 0.00 0.00 0.00 86 1010.9
20260904003247 80 154 0.0 0.0 0.00 0.00 0.00 86 1010.8
20260904002742 80 177 0.0 0.0 0.00 0.00 0.00 86 1011.0
20260904002239 80 143 0.0 0.0 0.00 0.00 0.00 86 1010.8
20260904001737 80 179 2.0 3.0 0.00 0.00 0.00 86 1011.0
20260904001232 81 107 5.0 6.0 0.00 0.00 0.00 86 1011.1
20260904000727 81 170 0.0 0.0 0.00 0.00 0.00 86 1011.4
20260904000222 81 166 0.0 0.0 0.00 0.00 0.00 86 1011.1
20260903235721 81 127 2.0 2.0 0.00 0.00 0.00 86 1011.3
20260903235218 81 156 0.0 0.0 0.00 0.00 0.00 86 1011.2
20260903234712 81 153 0.0 0.0 0.00 0.00 0.00 86 1011.2
20260903234209 81 170 0.0 0.0 0.00 0.00 0.00 86 1011.3
20260903233704 81 55 3.0 5.0 0.00 0.00 0.00 86 1011.1
20260903233200 81 155 0.0 0.0 0.00 0.00 0.00 86 1011.2
20260903232659 81 157 0.0 0.0 0.00 0.00 0.00 86 1011.2
20260903232155 81 151 0.0 0.0 0.00 0.00 0.00 86 1011.3
20260903231654 81 167 2.0 2.0 0.00 0.00 0.00 85 1011.2
20260903231149 82 150 1.0 1.0 0.00 0.00 0.00 85 1011.1
20260903230645 82 152 0.0 0.0 0.00 0.00 0.00 85 1011.3
20260903230144 82 159 1.0 1.0 0.00 0.00 0.00 85 1011.1
20260903225641 81 86 3.0 3.0 0.00 0.00 0.00 85 1011.0
20260903225137 82 75 3.0 6.0 0.00 0.00 0.00 85 1011.2
20260903224633 82 137 0.0 0.0 0.00 0.00 0.00 86 1011.3
20260903224129 81 64 3.0 6.0 0.00 0.00 0.00 85 1011.3
20260903223624 82 145 1.0 2.0 0.00 0.00 0.00 86 1011.4
20260903223122 82 146 0.0 0.0 0.00 0.00 0.00 86 1011.6
20260903222617 82 139 0.0 1.0 0.00 0.00 0.00 86 1011.4
20260903222116 81 133 1.0 2.0 0.00 0.00 0.00 86 1011.6
20260903221612 82 111 2.0 3.0 0.00 0.00 0.00 86 1011.7
20260903221109 81 176 0.0 0.0 0.00 0.00 0.00 86 1011.6
20260903220608 81 152 0.0 0.0 0.00 0.00 0.00 87 1011.7
20260903215602 80 160 0.0 0.0 0.00 0.00 0.00 88 1011.7
20260903215056 80 129 0.0 0.0 0.00 0.00 0.00 88 1011.7
20260903214556 80 123 0.0 0.0 0.00 0.00 0.00 88 1011.9
20260903214051 80 75 0.0 0.0 0.00 0.00 0.00 89 1012.0
20260903213546 80 149 0.0 0.0 0.00 0.00 0.00 90 1012.2
20260903213042 80 149 0.0 0.0 0.00 0.00 0.00 90 1012.1
20260903212538 79 124 0.0 0.0 0.00 0.00 0.00 90 1012.3
20260903212033 79 100 1.0 3.0 0.00 0.00 0.00 90 1012.1
20260903211528 79 123 1.0 2.0 0.00 0.00 0.00 91 1012.1
20260903211024 79 76 0.0 0.0 0.00 0.00 0.00 91 1012.6
20260903210524 79 128 2.0 3.0 0.00 0.00 0.00 91 1012.7
20260903210021 79 101 1.0 2.0 0.00 0.00 0.00 91 1012.7
20260903205514 79 117 4.0 5.0 0.00 0.00 0.00 91 1012.8
20260903205009 79 176 0.0 0.0 0.00 0.00 0.00 91 1012.8
20260903204504 78 119 1.0 2.0 0.00 0.00 0.00 90 1012.8
20260903204000 78 82 2.0 5.0 0.00 0.00 0.00 90 1013.0
20260903203455 78 118 0.0 0.0 0.00 0.00 0.00 90 1013.0
20260903202954 78 149 0.0 0.0 0.00 0.00 0.00 90 1013.3
20260903202451 78 156 0.0 0.0 0.00 0.00 0.00 90 1013.1
20260903201945 78 154 0.0 0.0 0.00 0.00 0.00 90 1013.1
20260903201440 78 149 0.0 0.0 0.00 0.00 0.00 90 1012.9
20260903200939 78 156 0.0 0.0 0.00 0.00 0.00 90 1013.1
20260903200434 78 139 0.0 0.0 0.00 0.00 0.00 90 1013.1
20260903195929 78 136 0.0 0.0 0.00 0.00 0.00 89 1013.0
20260903195426 78 137 0.0 0.0 0.00 0.00 0.00 89 1012.9
20260903194920 78 161 0.0 0.0 0.00 0.00 0.00 89 1012.9
20260903194416 78 152 0.0 0.0 0.00 0.00 0.00 88 1013.2
20260903193911 78 166 0.0 0.0 0.00 0.00 0.00 88 1012.9
20260903193408 79 159 1.0 1.0 0.00 0.00 0.00 87 1013.2
20260903192902 79 164 0.0 0.0 0.00 0.00 0.00 86 1012.9
20260903192358 79 163 1.0 1.0 0.00 0.00 0.00 86 1013.0
20260903191854 79 169 0.0 0.0 0.00 0.00 0.00 84 1013.2
20260903191350 79 134 0.0 0.0 0.00 0.00 0.00 84 1013.2
20260903190849 80 168 1.0 1.0 0.00 0.00 0.00 83 1013.3
20260903190344 80 97 0.0 0.0 0.00 0.00 0.00 83 1013.2
20260903185843 80 90 1.0 2.0 0.00 0.00 0.00 82 1013.4
20260903185338 80 179 2.0 2.0 0.00 0.00 0.00 81 1013.5
20260903184835 81 132 0.0 0.0 0.00 0.00 0.00 81 1013.8
20260903184331 80 143 1.0 1.0 0.00 0.00 0.00 81 1013.8
20260903183826 81 124 0.0 1.0 0.00 0.00 0.00 82 1013.9
20260903183321 81 150 2.0 2.0 0.00 0.00 0.00 83 1013.8
20260903182819 82 73 3.0 5.0 0.00 0.00 0.00 85 1013.8
20260903182314 83 152 0.0 1.0 0.00 0.00 0.00 85 1013.8
20260903181814 83 35 0.0 0.0 0.00 0.00 0.00 86 1013.4
20260903181308 82 196 1.0 1.0 0.00 0.00 0.00 86 1013.7
20260903180803 83 139 1.0 1.0 0.00 0.00 0.00 86 1013.9
20260903180302 83 119 2.0 2.0 0.00 0.00 0.00 85 1013.9
20260903175802 84 135 1.0 1.0 0.00 0.00 0.00 85 1014.0
20260903175301 84 359 1.0 1.0 0.00 0.00 0.00 84 1014.0
20260903174755 84 194 1.0 2.0 0.00 0.00 0.00 84 1014.1
20260903174251 84 62 1.0 1.0 0.00 0.00 0.00 84 1014.0
20260903173745 84 47 2.0 3.0 0.00 0.00 0.00 85 1013.9
20260903173241 83 94 2.0 2.0 0.00 0.00 0.00 86 1014.1
20260903172736 83 130 1.0 1.0 0.00 0.00 0.00 87 1013.7
20260903172231 82 234 2.0 2.0 0.00 0.00 0.00 88 1014.0
20260903171726 83 178 2.0 2.0 0.00 0.00 0.00 88 1013.9
20260903171222 83 70 2.0 3.0 0.00 0.00 0.00 88 1014.1
20260903170720 83 107 1.0 2.0 0.00 0.00 0.00 88 1014.3
20260903170216 83 82 0.0 1.0 0.00 0.00 0.00 88 1014.1
20260903165714 83 155 0.0 0.0 0.00 0.00 0.00 88 1014.1
20260903165209 82 334 3.0 3.0 0.00 0.00 0.00 88 1014.2
20260903164703 83 251 2.0 2.0 0.00 0.00 0.00 88 1014.1
20260903164159 82 153 0.0 0.0 0.00 0.00 0.00 88 1014.1
20260903163659 82 134 0.0 0.0 0.00 0.00 0.00 88 1013.9
20260903163156 83 58 0.0 0.0 0.00 0.00 0.00 88 1013.7
20260903162651 83 174 1.0 2.0 0.00 0.00 0.00 87 1013.7
20260903162147 84 151 0.0 0.0 0.00 0.00 0.00 87 1013.9
20260903161643 84 13 0.0 1.0 0.00 0.00 0.00 86 1013.6
20260903161138 84 137 0.0 1.0 0.00 0.00 0.00 86 1013.5
20260903160633 84 151 0.0 0.0 0.00 0.00 0.00 86 1014.0
20260903160127 84 151 0.0 0.0 0.00 0.00 0.00 87 1013.8
20260903155626 83 152 0.0 0.0 0.00 0.00 0.00 87 1013.7
20260903155121 83 130 0.0 0.0 0.00 0.00 0.00 87 1013.7
20260903154617 83 171 0.0 0.0 0.00 0.00 0.00 87 1013.6
20260903154113 83 152 0.0 0.0 0.00 0.00 0.00 88 1013.9
20260903153609 83 158 0.0 0.0 0.00 0.00 0.00 88 1013.7
20260903153104 83 148 0.0 0.0 0.00 0.00 0.00 88 1013.8
20260903152600 83 152 0.0 0.0 0.00 0.00 0.00 88 1013.9
20260903152056 82 137 0.0 0.0 0.00 0.00 0.00 88 1013.9
20260903151555 82 152 0.0 0.0 0.00 0.00 0.00 88 1014.0
20260903151050 82 124 0.0 0.0 0.00 0.00 0.00 89 1013.9
20260903150544 82 154 0.0 0.0 0.00 0.00 0.00 89 1014.0
20260903150040 82 128 0.0 0.0 0.00 0.00 0.00 89 1014.0
20260903145539 81 146 0.0 0.0 0.00 0.00 0.00 90 1014.1
20260903145035 81 150 0.0 0.0 0.00 0.00 0.00 90 1014.1
20260903144534 81 159 0.0 0.0 0.00 0.00 0.00 91 1014.3
20260903144030 81 148 0.0 1.0 0.00 0.00 0.00 92 1014.4
20260903143526 81 126 0.0 0.0 0.00 0.00 0.00 92 1014.5
20260903143022 82 137 0.0 0.0 0.00 0.00 0.00 92 1014.2
20260903142517 81 152 0.0 0.0 0.00 0.00 0.00 92 1014.3
20260903142014 81 147 0.0 0.0 0.00 0.00 0.00 93 1014.1
20260903141509 81 117 0.0 0.0 0.00 0.00 0.00 93 1014.3
20260903141004 81 157 0.0 0.0 0.00 0.00 0.00 93 1014.3
20260903140500 81 173 0.0 0.0 0.00 0.00 0.00 93 1014.3
20260903140000 81 162 0.0 0.0 0.00 0.00 0.00 93 1014.2
20260903135456 81 150 0.0 0.0 0.00 0.00 0.00 93 1014.1
20260903134950 80 140 0.0 0.0 0.00 0.00 0.00 93 1014.0
20260903134449 80 69 0.0 0.0 0.00 0.00 0.00 93 1014.0
20260903133946 80 151 0.0 0.0 0.00 0.00 0.00 94 1013.9
20260903133443 80 151 0.0 0.0 0.00 0.00 0.00 94 1013.9
20260903132938 80 149 0.0 0.0 0.00 0.00 0.00 94 1013.9
20260903132434 80 138 0.0 0.0 0.00 0.00 0.00 94 1014.1
20260903131933 80 162 0.0 0.0 0.00 0.00 0.00 94 1014.0
20260903131428 80 153 0.0 0.0 0.00 0.00 0.00 94 1013.9
20260903130927 80 86 0.0 0.0 0.00 0.00 0.00 94 1013.8
20260903130423 79 145 0.0 0.0 0.00 0.00 0.00 94 1013.6
20260903125922 79 134 0.0 0.0 0.00 0.00 0.00 94 1013.6
20260903125421 79 145 0.0 1.0 0.00 0.00 0.00 94 1013.7
20260903124921 79 127 0.0 0.0 0.00 0.00 0.00 94 1013.6
20260903124416 79 130 0.0 1.0 0.00 0.00 0.00 94 1013.7
20260903123915 79 136 0.0 0.0 0.00 0.00 0.00 94 1013.8
20260903123410 79 148 0.0 1.0 0.00 0.00 0.00 94 1013.6
20260903122909 79 153 0.0 0.0 0.00 0.00 0.00 94 1013.3
20260903122403 79 51 0.0 0.0 0.00 0.00 0.00 94 1013.1
20260903121902 79 47 0.0 0.0 0.00 0.00 0.00 94 1013.0
20260903121357 79 49 0.0 0.0 0.00 0.00 0.00 94 1012.9
20260903120854 79 50 0.0 0.0 0.00 0.00 0.00 94 1013.0
20260903120352 79 48 0.0 1.0 0.00 0.00 0.00 94 1012.7
20260903115851 79 49 0.0 0.0 0.00 0.00 0.00 94 1012.7
20260903115345 79 48 0.0 0.0 0.00 0.00 0.00 94 1012.8
20260903114840 79 49 0.0 0.0 0.00 0.00 0.00 94 1012.7
20260903114336 79 49 0.0 0.0 0.00 0.00 0.00 94 1012.9
20260903113831 79 49 0.0 0.0 0.00 0.00 0.00 94 1012.8
20260903113326 79 50 0.0 0.0 0.00 0.00 0.00 94 1012.7
20260903112823 79 50 0.0 0.0 0.00 0.00 0.00 94 1012.8
20260903112318 79 53 1.0 1.0 0.00 0.00 0.00 94 1012.8
20260903111817 79 47 0.0 0.0 0.00 0.00 0.00 94 1012.8
20260903111311 79 46 0.0 0.0 0.00 0.00 0.00 94 1012.7
20260903110808 79 49 0.0 0.0 0.00 0.00 0.00 94 1012.7
20260903110304 79 50 0.0 0.0 0.00 0.00 0.00 94 1012.5
20260903105803 79 49 0.0 0.0 0.00 0.00 0.00 94 1012.6
20260903105258 79 50 0.0 0.0 0.00 0.00 0.00 94 1012.6
20260903104757 79 51 0.0 0.0 0.00 0.00 0.00 94 1012.5
20260903104253 79 56 0.0 0.0 0.00 0.00 0.00 94 1012.5
20260903103749 79 143 0.0 0.0 0.00 0.00 0.00 94 1012.6
20260903103245 79 147 0.0 0.0 0.00 0.00 0.00 94 1012.5
20260903102740 79 160 0.0 0.0 0.00 0.00 0.00 94 1012.6
20260903102240 79 145 0.0 0.0 0.00 0.00 0.00 94 1012.2
20260903101738 79 98 0.0 0.0 0.00 0.00 0.00 94 1012.2
20260903101235 79 135 0.0 0.0 0.00 0.00 0.00 94 1012.1
20260903100730 79 147 0.0 0.0 0.00 0.00 0.00 94 1012.2
20260903100229 79 159 0.0 0.0 0.00 0.00 0.00 93 1012.3
20260903095727 79 157 0.0 0.0 0.00 0.00 0.00 93 1012.5
20260903095222 79 148 0.0 0.0 0.00 0.00 0.00 93 1012.3
20260903094717 79 144 0.0 0.0 0.00 0.00 0.00 93 1012.3
20260903094212 79 140 0.0 0.0 0.00 0.00 0.00 93 1012.5
20260903093708 79 148 0.0 0.0 0.00 0.00 0.00 93 1012.1
20260903093203 79 152 0.0 0.0 0.00 0.00 0.00 93 1012.1
20260903092702 79 150 0.0 0.0 0.00 0.00 0.00 93 1012.2
20260903092157 79 150 0.0 0.0 0.00 0.00 0.00 93 1012.3
20260903091656 79 153 0.0 0.0 0.00 0.00 0.00 93 1012.1
20260903091150 78 153 0.0 0.0 0.00 0.00 0.00 93 1012.2
20260903090646 79 144 0.0 0.0 0.00 0.00 0.00 93 1012.5
20260903090144 78 151 0.0 0.0 0.00 0.00 0.00 93 1012.2
20260903085643 79 134 0.0 0.0 0.00 0.00 0.00 93 1012.5
20260903085140 79 150 0.0 0.0 0.00 0.00 0.00 93 1012.2
20260903084636 79 156 0.0 0.0 0.00 0.00 0.00 93 1012.2
20260903084131 79 151 0.0 0.0 0.00 0.00 0.00 93 1012.3
20260903083627 79 151 0.0 0.0 0.00 0.00 0.00 93 1012.1
20260903083121 79 151 0.0 0.0 0.00 0.00 0.00 93 1012.0
20260903082616 79 150 0.0 0.0 0.00 0.00 0.00 93 1012.0
20260903082112 79 151 0.0 0.0 0.00 0.00 0.00 93 1012.1
20260903081607 79 150 0.0 0.0 0.00 0.00 0.00 93 1012.0
20260903081102 79 131 0.0 0.0 0.00 0.00 0.00 93 1012.1
20260903080558 79 159 0.0 0.0 0.00 0.00 0.00 93 1012.0
20260903080055 79 157 0.0 0.0 0.00 0.00 0.00 93 1012.1
20260903075549 79 117 0.0 1.0 0.00 0.00 0.00 93 1011.7
20260903075045 79 160 1.0 1.0 0.00 0.00 0.00 92 1012.0
20260903074544 79 152 0.0 0.0 0.00 0.00 0.00 92 1012.0
20260903074039 79 155 0.0 0.0 0.00 0.00 0.00 92 1011.7
20260903073534 78 181 1.0 1.0 0.00 0.00 0.00 92 1011.8
20260903073030 78 142 0.0 0.0 0.00 0.00 0.00 92 1011.7
20260903072526 78 157 0.0 0.0 0.00 0.00 0.00 92 1011.9
20260903072022 78 158 0.0 0.0 0.00 0.00 0.00 92 1012.0
20260903071518 78 176 3.0 3.0 0.00 0.00 0.00 92 1011.7
20260903071019 78 165 0.0 1.0 0.00 0.00 0.00 92 1011.9
20260903070518 78 158 0.0 0.0 0.00 0.00 0.00 92 1011.9
20260903070015 78 148 0.0 0.0 0.00 0.00 0.00 92 1012.1
20260903065508 78 160 0.0 0.0 0.00 0.00 0.00 92 1011.9
20260903065008 78 133 1.0 1.0 0.00 0.00 0.00 92 1012.0
20260903064502 78 187 0.0 1.0 0.00 0.00 0.00 92 1011.8
20260903063958 78 155 0.0 1.0 0.00 0.00 0.00 92 1012.0
20260903063453 78 174 3.0 3.0 0.00 0.00 0.00 92 1012.3
20260903062948 78 162 0.0 1.0 0.00 0.00 0.00 92 1012.2
20260903062448 77 185 0.0 1.0 0.00 0.00 0.00 92 1012.1
20260903061944 77 162 1.0 2.0 0.00 0.00 0.00 92 1012.2
20260903061444 77 148 2.0 3.0 0.00 0.00 0.00 92 1012.1
20260903060940 77 157 0.0 0.0 0.00 0.00 0.00 92 1012.2
20260903060434 76 173 1.0 2.0 0.00 0.00 0.00 92 1012.1
20260903055932 76 139 3.0 5.0 0.00 0.00 0.00 93 1012.5
20260903055430 77 155 2.0 2.0 0.00 0.00 0.00 93 1012.3
20260903054925 77 161 0.0 0.0 0.00 0.00 0.00 93 1012.6